GW4243 Weather Reports


Display with metric or nautical units.
time (UTC)temp
F
wind
direction
speed
MPH
gust
MPH
rain 1hr
in
rain 24hr
in
rain mn
in
humidity
%
barometer
mb
20260505205030 50 0 0.0 0.0 0.00 0.07 0.07 91 1009.8
20260505204538 50 0 0.0 0.0 0.00 0.07 0.07 91 1009.8
20260505204027 50 0 0.0 0.0 0.00 0.07 0.07 90 1009.8
20260505203527 50 0 0.0 0.0 0.00 0.07 0.07 90 1009.7
20260505203049 50 0 0.0 0.0 0.00 0.07 0.07 90 1009.8
20260505202527 51 0 0.0 0.0 0.00 0.07 0.07 90 1009.7
20260505202028 51 0 0.0 0.0 0.00 0.07 0.07 90 1009.8
20260505201539 51 0 0.0 0.0 0.00 0.07 0.07 90 1009.7
20260505201027 51 0 0.0 0.0 0.00 0.07 0.07 90 1009.6
20260505200530 51 0 0.0 0.0 0.00 0.07 0.07 90 1009.4
20260505200043 52 0 0.0 0.0 0.00 0.07 0.07 90 1009.5
20260505195527 52 0 0.0 0.0 0.00 0.07 0.07 90 1009.4
20260505195028 52 0 0.0 0.0 0.00 0.07 0.07 90 1009.2
20260505194543 52 0 0.0 0.0 0.00 0.07 0.07 90 1009.2
20260505194027 52 0 0.0 0.0 0.00 0.07 0.07 90 1009.1
20260505193526 53 0 0.0 0.0 0.00 0.07 0.07 90 1009.1
20260505193045 53 0 0.0 0.0 0.00 0.07 0.07 90 1009.1
20260505192526 53 0 0.0 0.0 0.00 0.07 0.07 90 1009.1
20260505192026 53 0 0.0 0.0 0.00 0.07 0.07 90 1009.1
20260505191551 54 0 0.0 0.0 0.00 0.07 0.07 90 1009.0
20260505191032 54 0 0.0 0.0 0.00 0.07 0.07 90 1008.9
20260505190526 54 0 0.0 0.0 0.00 0.07 0.07 90 1009.0
20260505190038 55 0 0.0 0.0 0.00 0.07 0.07 90 1008.9
20260505185527 55 0 0.0 0.0 0.00 0.07 0.07 90 1008.9
20260505185027 55 0 0.0 0.0 0.00 0.07 0.07 90 1008.9
20260505184538 55 0 0.0 0.0 0.00 0.07 0.07 90 1008.8
20260505184027 56 0 0.0 0.0 0.00 0.07 0.07 90 1008.7
20260505183527 56 0 0.0 0.0 0.00 0.07 0.07 90 1008.6
20260505183044 56 0 0.0 0.0 0.00 0.07 0.07 90 1008.6
20260505182527 56 0 0.0 0.0 0.00 0.07 0.07 90 1008.5
20260505182027 56 0 0.0 0.0 0.00 0.07 0.07 90 1008.5
20260505181539 56 0 0.0 0.0 0.00 0.07 0.07 90 1008.6
20260505181026 56 0 0.0 1.0 0.00 0.07 0.07 90 1008.7
20260505180527 56 0 0.0 1.0 0.00 0.06 0.06 91 1008.6
20260505180050 56 0 0.0 1.0 0.00 0.06 0.06 91 1008.9
20260505175526 56 0 0.0 0.0 0.00 0.06 0.06 91 1008.6
20260505175031 56 0 0.0 0.0 0.00 0.06 0.06 91 1008.4
20260505174546 56 0 0.0 0.0 0.00 0.06 0.06 91 1008.3
20260505174028 56 0 0.0 0.0 0.00 0.06 0.06 91 1008.2
20260505173527 56 0 0.0 0.0 0.00 0.06 0.06 91 1008.2
20260505173038 56 0 0.0 0.0 0.00 0.06 0.06 91 1008.2
20260505172531 56 0 0.0 0.0 0.00 0.06 0.06 91 1008.2
20260505172027 56 0 0.0 0.0 0.00 0.06 0.06 91 1008.0
20260505171538 56 0 0.0 0.0 0.00 0.06 0.06 91 1008.1
20260505171027 56 0 0.0 0.0 0.00 0.06 0.06 91 1008.0
20260505170527 56 0 0.0 0.0 0.00 0.06 0.06 91 1008.1
20260505165531 56 0 0.0 0.0 0.00 0.06 0.06 91 1008.0
20260505165029 56 0 0.0 0.0 0.00 0.06 0.06 91 1008.0
20260505164540 57 0 0.0 0.0 0.00 0.06 0.06 91 1008.0
20260505164027 57 0 0.0 0.0 0.00 0.06 0.06 91 1008.1
20260505163527 57 0 0.0 1.0 0.01 0.06 0.06 91 1008.2
20260505163040 56 0 0.0 1.0 0.01 0.06 0.06 91 1008.3
20260505162526 56 0 0.0 1.0 0.01 0.06 0.06 92 1008.4
20260505162026 56 0 0.0 1.0 0.01 0.06 0.06 92 1008.5
20260505161540 57 0 0.0 1.0 0.01 0.06 0.06 92 1008.4
20260505161026 56 0 0.0 1.0 0.01 0.06 0.06 91 1008.5
20260505160527 56 0 0.0 1.0 0.01 0.06 0.06 91 1008.5
20260505153053 58 0 0.0 2.0 0.00 0.07 0.04 83 1008.5
20260505152529 58 0 0.0 1.0 0.00 0.07 0.04 84 1008.5
20260505152026 58 0 0.0 1.0 0.00 0.07 0.04 83 1008.4
20260505151546 58 0 0.0 1.0 0.00 0.07 0.04 83 1008.5
20260505151027 58 0 0.0 2.0 0.00 0.07 0.04 82 1008.4
20260505150529 58 0 0.0 2.0 0.00 0.07 0.04 81 1008.3
20260505140527 63 0 0.0 3.0 0.00 0.07 0.04 75 1007.4
20260505125027 63 0 0.0 0.0 0.00 0.06 0.03 74 1008.1
20260505124541 62 0 0.0 0.0 0.00 0.06 0.03 74 1008.2
20260505124027 62 0 0.0 0.0 0.00 0.06 0.03 73 1008.2
20260505123526 62 0 0.0 0.0 0.00 0.06 0.03 75 1008.3
20260505123101 62 0 0.0 0.0 0.00 0.06 0.03 73 1008.2
20260505122527 63 0 0.0 0.0 0.00 0.06 0.03 72 1008.3
20260505122027 62 0 0.0 0.0 0.00 0.06 0.03 76 1008.3
20260505121539 62 0 0.0 0.0 0.00 0.06 0.03 77 1008.3
20260505121027 61 0 0.0 0.0 0.00 0.06 0.03 81 1008.4
20260505120527 60 0 0.0 0.0 0.00 0.06 0.03 81 1008.5
20260505120037 60 0 0.0 0.0 0.00 0.06 0.03 87 1008.5
20260505115526 59 0 0.0 0.0 0.00 0.06 0.03 85 1008.5
20260505115027 59 0 0.0 0.0 0.00 0.06 0.03 86 1008.5
20260505114551 59 0 0.0 0.0 0.00 0.06 0.03 88 1008.6
20260505114027 57 0 0.0 0.0 0.00 0.06 0.03 91 1008.7
20260505113527 57 0 0.0 0.0 0.00 0.06 0.03 92 1008.7
20260505113042 56 0 0.0 0.0 0.00 0.06 0.03 92 1008.8
20260505112531 56 0 0.0 0.0 0.00 0.06 0.03 93 1008.9
20260505112027 56 0 0.0 0.0 0.00 0.06 0.03 93 1008.9
20260505111554 56 0 0.0 0.0 0.00 0.06 0.03 93 1009.0
20260505111026 56 0 0.0 0.0 0.00 0.06 0.03 93 1009.2
20260505110527 55 0 0.0 0.0 0.00 0.06 0.03 92 1009.2
20260505102027 56 0 0.0 0.0 0.00 0.06 0.03 90 1009.5
20260505101541 55 0 0.0 0.0 0.00 0.06 0.03 89 1009.3
20260505101027 55 0 0.0 0.0 0.00 0.06 0.03 90 1009.3
20260505100527 55 0 0.0 0.0 0.00 0.06 0.03 91 1009.3
20260505100039 55 0 0.0 0.0 0.00 0.06 0.03 91 1009.3
20260505095530 55 0 0.0 0.0 0.00 0.06 0.03 91 1009.2
20260505095026 55 0 0.0 0.0 0.00 0.06 0.03 91 1009.0
20260505094539 54 0 0.0 0.0 0.00 0.06 0.03 91 1009.1
20260505094029 54 0 0.0 0.0 0.00 0.06 0.03 92 1009.1
20260505093526 54 0 0.0 0.0 0.00 0.06 0.03 92 1009.1
20260505093038 54 0 0.0 0.0 0.00 0.06 0.03 92 1009.2
20260505092527 54 0 0.0 0.0 0.00 0.06 0.03 92 1009.2
20260505092027 54 0 0.0 0.0 0.00 0.06 0.03 93 1009.2
20260505091539 54 0 0.0 0.0 0.00 0.06 0.03 93 1009.3
20260505091027 54 0 0.0 0.0 0.00 0.06 0.03 93 1009.3
20260505090527 55 0 0.0 0.0 0.00 0.06 0.03 94 1009.3
20260505090048 54 0 0.0 0.0 0.00 0.06 0.03 94 1009.3
20260505085527 54 0 0.0 0.0 0.00 0.06 0.03 94 1009.2
20260505085027 54 0 0.0 0.0 0.01 0.06 0.03 94 1009.2
20260505084539 53 0 0.0 0.0 0.01 0.06 0.03 94 1009.2
20260505084026 53 0 0.0 0.0 0.02 0.06 0.03 94 1009.2
20260505083526 53 0 0.0 0.0 0.02 0.06 0.03 94 1009.2
20260505083046 53 0 0.0 0.0 0.03 0.06 0.03 94 1009.3
20260505082526 53 0 0.0 0.0 0.03 0.06 0.03 94 1009.5
20260505082027 53 0 0.0 0.0 0.03 0.06 0.03 94 1009.5
20260505081546 52 0 0.0 0.0 0.03 0.06 0.03 94 1009.7
20260505081026 53 0 0.0 0.0 0.03 0.06 0.03 94 1009.7
20260505080526 53 0 0.0 0.0 0.03 0.06 0.03 94 1009.8
20260505080043 52 0 0.0 0.0 0.02 0.05 0.03 94 1009.9
20260505075527 52 0 0.0 0.0 0.02 0.05 0.03 93 1010.0
20260505075027 52 0 0.0 0.0 0.01 0.04 0.02 93 1010.0
20260505074543 52 0 0.0 0.0 0.01 0.04 0.02 93 1010.0
20260505074027 52 0 0.0 0.0 0.00 0.03 0.01 93 1010.1
20260505073527 52 0 0.0 0.0 0.00 0.03 0.01 92 1010.2
20260505073040 52 0 0.0 0.0 0.00 0.03 0.00 92 1010.1
20260505072526 52 0 0.0 0.0 0.00 0.03 0.00 91 1010.2
20260505072027 52 0 0.0 0.0 0.00 0.03 0.00 91 1010.1
20260505071540 52 0 0.0 0.0 0.00 0.03 0.00 92 1010.1
20260505071026 52 0 0.0 0.0 0.00 0.03 0.00 91 1010.1
20260505070526 52 0 0.0 0.0 0.00 0.03 0.00 91 1010.1
20260505070045 52 0 0.0 0.0 0.00 0.03 0.00 91 1010.2
20260505065527 52 0 0.0 0.0 0.00 0.03 0.00 91 1010.3
20260505065026 52 0 0.0 0.0 0.00 0.03 0.00 92 1010.3
20260505064554 52 0 0.0 0.0 0.00 0.03 0.00 91 1010.3
20260505064027 52 0 0.0 0.0 0.00 0.03 0.00 92 1010.4
20260505063527 52 0 0.0 0.0 0.00 0.03 0.00 92 1010.4
20260505063046 51 0 0.0 0.0 0.00 0.03 0.00 92 1010.5
20260505062527 51 0 0.0 0.0 0.00 0.03 0.00 93 1010.5
20260505062026 51 0 0.0 0.0 0.00 0.03 0.00 93 1010.6
20260505061542 51 0 0.0 0.0 0.00 0.03 0.00 93 1010.6
20260505061026 51 0 0.0 0.0 0.00 0.03 0.00 94 1010.5
20260505060526 50 0 0.0 0.0 0.00 0.03 0.00 94 1010.6
20260505060039 50 0 0.0 0.0 0.00 0.03 0.00 94 1010.5
20260505055527 50 0 0.0 0.0 0.00 0.03 0.00 95 1010.4
20260505055027 50 0 0.0 0.0 0.00 0.03 0.00 95 1010.4
20260505054538 50 0 0.0 0.0 0.00 0.03 0.00 95 1010.3
20260505054026 49 0 0.0 0.0 0.00 0.03 0.00 95 1010.3
20260505053526 49 0 0.0 0.0 0.00 0.02 0.00 95 1010.2
20260505053041 49 0 0.0 0.0 0.00 0.02 0.00 95 1010.1
20260505052527 49 0 0.0 0.0 0.00 0.02 0.00 95 1010.2
20260505052027 49 0 0.0 0.0 0.00 0.02 0.00 94 1010.3
20260505051539 49 0 0.0 0.0 0.00 0.02 0.00 94 1010.3
20260505051026 49 0 0.0 0.0 0.00 0.02 0.00 94 1010.2
20260505050529 49 0 0.0 0.0 0.00 0.02 0.00 94 1010.2
20260505041605 48 0 0.0 0.0 0.00 0.02 0.00 94 1010.3
20260505041026 48 0 0.0 0.0 0.00 0.02 0.00 94 1010.2
20260505040526 48 0 0.0 0.0 0.00 0.02 0.00 94 1010.1
20260505040042 48 0 0.0 0.0 0.00 0.02 0.00 94 1010.2
20260505035527 48 0 0.0 0.0 0.00 0.02 0.00 94 1010.1
20260505035026 48 0 0.0 0.0 0.00 0.02 0.00 94 1010.1
20260505034542 48 0 0.0 0.0 0.00 0.02 0.00 94 1010.1
20260505034027 48 0 0.0 0.0 0.00 0.02 0.00 94 1010.3
20260505033531 48 0 0.0 0.0 0.00 0.02 0.00 94 1010.4
20260505033038 48 0 0.0 0.0 0.00 0.02 0.00 94 1010.5
20260505032526 48 0 0.0 0.0 0.00 0.02 0.00 94 1010.5
20260505032030 48 0 0.0 0.0 0.00 0.02 0.00 93 1010.6
20260505031537 48 0 0.0 0.0 0.00 0.02 0.00 93 1010.4
20260505031026 48 0 0.0 0.0 0.00 0.02 0.00 93 1010.4
20260505030527 48 0 0.0 0.0 0.00 0.02 0.00 93 1010.4
20260505030037 48 0 0.0 0.0 0.00 0.02 0.00 93 1010.5
20260505025526 48 0 0.0 0.0 0.00 0.02 0.00 93 1010.6
20260505025025 48 0 0.0 0.0 0.00 0.02 0.00 93 1010.7
20260505024545 48 0 0.0 0.0 0.00 0.02 0.00 93 1010.7
20260505024026 48 0 0.0 0.0 0.00 0.02 0.00 93 1010.8
20260505023526 48 0 0.0 0.0 0.00 0.02 0.00 93 1010.9
20260505023046 48 0 0.0 0.0 0.00 0.02 0.00 93 1010.8
20260505022530 48 0 0.0 0.0 0.00 0.02 0.00 93 1010.8
20260505022027 49 0 0.0 0.0 0.00 0.02 0.00 93 1010.9
20260505021544 49 0 0.0 0.0 0.00 0.02 0.00 93 1010.9
20260505021026 49 0 0.0 0.0 0.00 0.02 0.00 93 1010.8
20260505020526 49 0 0.0 0.0 0.00 0.02 0.00 93 1010.9
20260505020037 49 0 0.0 0.0 0.00 0.02 0.00 93 1010.8
20260505015527 49 0 0.0 0.0 0.00 0.02 0.00 93 1010.8
20260505015030 49 0 0.0 0.0 0.00 0.02 0.00 93 1011.0
20260505014542 49 0 0.0 0.0 0.00 0.02 0.00 93 1010.9
20260505014026 49 0 0.0 0.0 0.00 0.02 0.00 93 1011.0
20260505013529 49 0 0.0 0.0 0.00 0.02 0.00 93 1011.0
20260505013036 49 0 0.0 0.0 0.00 0.02 0.00 93 1011.0
20260505012526 49 0 0.0 0.0 0.00 0.02 0.00 93 1011.2
20260505012026 49 0 0.0 0.0 0.00 0.02 0.00 93 1011.2
20260505011540 49 0 0.0 0.0 0.00 0.02 0.00 93 1011.4
20260505011025 49 0 0.0 0.0 0.00 0.02 0.00 93 1011.5
20260505010526 49 0 0.0 0.0 0.00 0.02 0.00 92 1011.5
20260505010043 49 0 0.0 0.0 0.00 0.02 0.00 92 1011.6
20260505005527 49 0 0.0 0.0 0.00 0.02 0.00 93 1011.6
20260505005028 50 0 0.0 0.0 0.00 0.02 0.00 93 1011.7
20260505004538 50 0 0.0 0.0 0.00 0.02 0.00 93 1011.7
20260505004027 50 0 0.0 0.0 0.00 0.02 0.00 92 1011.8
20260505003529 50 0 0.0 0.0 0.00 0.02 0.00 92 1011.7
20260505003038 50 0 0.0 0.0 0.00 0.02 0.00 92 1011.8
20260505002529 50 0 0.0 0.0 0.00 0.02 0.00 92 1011.9
20260505002027 50 0 0.0 0.0 0.00 0.02 0.00 92 1012.0
20260505001548 50 0 0.0 0.0 0.00 0.02 0.00 92 1012.1
20260505001027 51 0 0.0 0.0 0.00 0.02 0.00 92 1012.2
20260505000527 51 0 0.0 0.0 0.00 0.02 0.00 92 1012.2
20260505000053 51 0 0.0 0.0 0.00 0.02 0.00 92 1012.2
20260504235526 51 0 0.0 0.0 0.00 0.02 0.00 92 1012.2
20260504235026 51 0 0.0 0.0 0.00 0.02 0.00 92 1012.2
20260504234546 51 0 0.0 0.0 0.00 0.02 0.00 92 1012.3
20260504234026 52 0 0.0 0.0 0.00 0.02 0.00 92 1012.3
20260504233528 52 0 0.0 0.0 0.00 0.02 0.00 92 1012.3
20260504233039 52 0 0.0 0.0 0.00 0.02 0.00 92 1012.4
20260504232525 52 0 0.0 0.0 0.00 0.02 0.00 92 1012.5
20260504232026 52 0 0.0 0.0 0.00 0.02 0.00 92 1012.4
20260504231554 52 0 0.0 0.0 0.00 0.02 0.00 92 1012.5
20260504231029 52 0 0.0 0.0 0.00 0.02 0.00 92 1012.5
20260504230527 52 0 0.0 0.0 0.00 0.02 0.00 92 1012.5
20260504230037 52 0 0.0 0.0 0.00 0.02 0.00 92 1012.4
20260504225526 53 0 0.0 0.0 0.00 0.02 0.00 92 1012.5
20260504225026 53 0 0.0 0.0 0.00 0.02 0.00 92 1012.5
20260504224540 53 0 0.0 0.0 0.00 0.02 0.00 92 1012.6
20260504224030 53 0 0.0 0.0 0.00 0.02 0.00 92 1012.7
20260504223529 53 0 0.0 0.0 0.00 0.02 0.00 92 1012.8
20260504223037 53 0 0.0 0.0 0.00 0.02 0.00 92 1012.8
20260504222526 53 0 0.0 0.0 0.00 0.02 0.00 92 1012.8
20260504222026 53 0 0.0 0.0 0.00 0.02 0.00 92 1012.7
20260504221545 53 0 0.0 0.0 0.00 0.02 0.00 92 1012.7
20260504221027 53 0 0.0 0.0 0.00 0.02 0.00 92 1012.7
20260504220528 53 0 0.0 0.0 0.00 0.02 0.00 92 1012.7
20260504220039 53 0 0.0 0.0 0.00 0.02 0.00 92 1012.6
20260504215526 53 0 0.0 0.0 0.00 0.02 0.02 92 1012.5
20260504215030 53 0 0.0 0.0 0.00 0.02 0.02 92 1012.7
20260504214538 53 0 0.0 0.0 0.00 0.02 0.02 92 1012.7
20260504214030 53 0 0.0 0.0 0.00 0.02 0.02 92 1012.9
20260504213528 54 0 0.0 0.0 0.00 0.02 0.02 91 1012.9
20260504213037 54 0 0.0 0.0 0.00 0.02 0.02 91 1013.0
20260504212529 54 0 0.0 0.0 0.00 0.02 0.02 91 1013.0
20260504212027 54 0 0.0 0.0 0.00 0.02 0.02 91 1013.1
20260504211547 54 0 0.0 0.0 0.00 0.02 0.02 91 1013.1
20260504211027 54 0 0.0 0.0 0.00 0.02 0.02 91 1013.2
20260504210527 54 0 0.0 0.0 0.00 0.02 0.02 91 1013.3
20260504205526 54 0 0.0 0.0 0.00 0.02 0.02 91 1013.4